| time (UTC) | temp F | wind direction | speed MPH | gust MPH | rain 1hr in | rain 24hr in | rain mn in | humidity % | barometer mb |
| 20260507163031 | 56 | 281 | 11.0 | 23.0 | 0.00 | 0.00 | 0.00 | 68 | 1021.1 |
| 20260507161539 | 56 | 277 | 10.0 | 21.0 | 0.00 | 0.00 | 0.00 | 69 | 1021.2 |
| 20260507160111 | 55 | 272 | 11.0 | 23.0 | 0.00 | 0.00 | 0.00 | 70 | 1021.4 |
| 20260507154532 | 55 | 287 | 9.0 | 19.0 | 0.00 | 0.00 | 0.00 | 73 | 1021.5 |
| 20260507151535 | 54 | 287 | 8.0 | 16.0 | 0.00 | 0.00 | 0.00 | 74 | 1021.6 |
| 20260507150045 | 54 | 292 | 8.0 | 17.0 | 0.00 | 0.00 | 0.00 | 76 | 1021.7 |
| 20260507144534 | 53 | 298 | 7.0 | 16.0 | 0.00 | 0.00 | 0.00 | 78 | 1021.7 |
| 20260507143109 | 52 | 298 | 8.0 | 16.0 | 0.00 | 0.00 | 0.00 | 80 | 1021.7 |
| 20260507141535 | 52 | 298 | 7.0 | 16.0 | 0.00 | 0.00 | 0.00 | 80 | 1021.6 |
| 20260507140036 | 52 | 299 | 8.0 | 17.0 | 0.00 | 0.00 | 0.00 | 80 | 1021.3 |
| 20260507134535 | 52 | 285 | 8.0 | 20.0 | 0.00 | 0.00 | 0.00 | 80 | 1021.0 |
| 20260507133031 | 52 | 292 | 8.0 | 17.0 | 0.00 | 0.00 | 0.00 | 81 | 1020.9 |
| 20260507131536 | 52 | 286 | 9.0 | 18.0 | 0.00 | 0.00 | 0.00 | 80 | 1020.9 |
| 20260507124530 | 53 | 285 | 9.0 | 16.0 | 0.00 | 0.00 | 0.00 | 80 | 1020.8 |
| 20260507121536 | 53 | 280 | 8.0 | 20.0 | 0.00 | 0.00 | 0.00 | 79 | 1021.0 |
| 20260507120036 | 53 | 279 | 9.0 | 18.0 | 0.00 | 0.00 | 0.00 | 78 | 1021.0 |
| 20260507114534 | 54 | 272 | 8.0 | 17.0 | 0.00 | 0.00 | 0.00 | 78 | 1021.0 |
| 20260507113033 | 54 | 267 | 8.0 | 17.0 | 0.00 | 0.00 | 0.00 | 79 | 1020.9 |
| 20260507111536 | 54 | 274 | 7.0 | 14.0 | 0.00 | 0.00 | 0.00 | 78 | 1020.9 |
| 20260507104536 | 55 | 259 | 6.0 | 14.0 | 0.00 | 0.00 | 0.00 | 78 | 1020.8 |
| 20260507103107 | 55 | 270 | 7.0 | 16.0 | 0.00 | 0.00 | 0.00 | 78 | 1020.8 |
| 20260507101531 | 55 | 275 | 9.0 | 17.0 | 0.00 | 0.00 | 0.00 | 78 | 1020.8 |
| 20260507100107 | 55 | 264 | 8.0 | 15.0 | 0.00 | 0.00 | 0.00 | 78 | 1020.8 |
| 20260507094533 | 55 | 258 | 9.0 | 18.0 | 0.00 | 0.00 | 0.00 | 78 | 1020.8 |
| 20260507093034 | 55 | 263 | 8.0 | 18.0 | 0.00 | 0.00 | 0.00 | 78 | 1020.8 |
| 20260507091641 | 55 | 264 | 7.0 | 18.0 | 0.00 | 0.00 | 0.00 | 78 | 1020.8 |
| 20260507090037 | 56 | 265 | 8.0 | 18.0 | 0.00 | 0.00 | 0.00 | 77 | 1021.0 |
| 20260507084652 | 56 | 265 | 9.0 | 22.0 | 0.00 | 0.00 | 0.00 | 77 | 1020.9 |
| 20260507081536 | 57 | 265 | 10.0 | 22.0 | 0.00 | 0.00 | 0.00 | 77 | 1020.8 |
| 20260507080035 | 57 | 273 | 8.0 | 16.0 | 0.00 | 0.00 | 0.00 | 78 | 1020.8 |
| 20260507074537 | 57 | 267 | 6.0 | 16.0 | 0.00 | 0.00 | 0.00 | 78 | 1020.8 |
| 20260507073037 | 57 | 263 | 7.0 | 17.0 | 0.00 | 0.00 | 0.00 | 78 | 1020.9 |
| 20260507071608 | 57 | 267 | 8.0 | 15.0 | 0.00 | 0.00 | 0.00 | 78 | 1021.0 |
| 20260507070031 | 57 | 267 | 6.0 | 14.0 | 0.00 | 0.00 | 0.00 | 78 | 1021.2 |
| 20260507064537 | 58 | 276 | 5.0 | 15.0 | 0.00 | 0.00 | 0.00 | 77 | 1021.2 |
| 20260507063107 | 58 | 275 | 4.0 | 13.0 | 0.00 | 0.00 | 0.00 | 76 | 1021.2 |
| 20260507061535 | 59 | 266 | 5.0 | 13.0 | 0.00 | 0.00 | 0.00 | 76 | 1021.2 |
| 20260507060037 | 59 | 255 | 7.0 | 14.0 | 0.00 | 0.00 | 0.00 | 76 | 1021.2 |
| 20260507054535 | 59 | 255 | 4.0 | 11.0 | 0.00 | 0.00 | 0.00 | 75 | 1021.5 |
| 20260507053030 | 60 | 249 | 6.0 | 14.0 | 0.00 | 0.00 | 0.00 | 75 | 1021.5 |
| 20260507051610 | 60 | 245 | 6.0 | 14.0 | 0.00 | 0.00 | 0.00 | 75 | 1021.6 |
| 20260507050037 | 60 | 247 | 6.0 | 13.0 | 0.00 | 0.00 | 0.00 | 74 | 1021.5 |
| 20260507041532 | 62 | 247 | 6.0 | 14.0 | 0.00 | 0.00 | 0.00 | 69 | 1020.7 |
| 20260507034537 | 62 | 249 | 8.0 | 18.0 | 0.00 | 0.00 | 0.00 | 67 | 1020.6 |
| 20260507033150 | 63 | 249 | 7.0 | 17.0 | 0.00 | 0.00 | 0.00 | 64 | 1020.4 |
| 20260507031535 | 64 | 249 | 7.0 | 16.0 | 0.00 | 0.00 | 0.00 | 61 | 1020.2 |
| 20260507030037 | 65 | 245 | 8.0 | 17.0 | 0.00 | 0.00 | 0.00 | 58 | 1020.1 |
| 20260507023036 | 66 | 253 | 9.0 | 19.0 | 0.00 | 0.00 | 0.00 | 55 | 1019.9 |
| 20260507021534 | 67 | 250 | 10.0 | 18.0 | 0.00 | 0.00 | 0.00 | 55 | 1019.9 |
| 20260507020035 | 67 | 258 | 10.0 | 18.0 | 0.00 | 0.00 | 0.00 | 55 | 1019.9 |
| 20260507014607 | 68 | 258 | 9.0 | 18.0 | 0.00 | 0.00 | 0.00 | 55 | 1019.9 |
| 20260507013036 | 68 | 255 | 10.0 | 21.0 | 0.00 | 0.00 | 0.00 | 54 | 1020.0 |
| 20260507011608 | 69 | 255 | 10.0 | 23.0 | 0.00 | 0.00 | 0.00 | 54 | 1020.1 |
| 20260507010032 | 69 | 276 | 9.0 | 18.0 | 0.00 | 0.00 | 0.00 | 54 | 1020.0 |
| 20260507004536 | 67 | 272 | 9.0 | 20.0 | 0.00 | 0.00 | 0.00 | 56 | 1020.0 |
| 20260507003035 | 67 | 270 | 10.0 | 24.0 | 0.00 | 0.00 | 0.00 | 56 | 1020.0 |
| 20260507001532 | 67 | 265 | 8.0 | 18.0 | 0.00 | 0.00 | 0.00 | 56 | 1020.0 |
| 20260507000036 | 66 | 273 | 9.0 | 21.0 | 0.00 | 0.00 | 0.00 | 56 | 1019.8 |
| 20260506234537 | 66 | 275 | 10.0 | 25.0 | 0.00 | 0.00 | 0.00 | 57 | 1019.7 |
| 20260506231531 | 67 | 265 | 7.0 | 22.0 | 0.00 | 0.00 | 0.00 | 57 | 1019.7 |
| 20260506224532 | 67 | 250 | 6.0 | 15.0 | 0.00 | 0.00 | 0.00 | 55 | 1020.0 |
| 20260506223110 | 69 | 254 | 8.0 | 18.0 | 0.00 | 0.00 | 0.00 | 54 | 1020.0 |
| 20260506221536 | 69 | 246 | 8.0 | 18.0 | 0.00 | 0.00 | 0.00 | 54 | 1020.0 |
| 20260506220031 | 70 | 252 | 11.0 | 22.0 | 0.00 | 0.00 | 0.00 | 55 | 1019.8 |
| 20260506214538 | 69 | 247 | 9.0 | 22.0 | 0.00 | 0.00 | 0.00 | 55 | 1020.0 |
| 20260506213038 | 68 | 252 | 11.0 | 24.0 | 0.00 | 0.00 | 0.00 | 55 | 1020.1 |
| 20260506211533 | 69 | 267 | 13.0 | 22.0 | 0.00 | 0.00 | 0.00 | 54 | 1020.1 |
| 20260506204532 | 69 | 274 | 10.0 | 28.0 | 0.00 | 0.00 | 0.00 | 54 | 1020.2 |
| 20260506203035 | 70 | 290 | 4.0 | 18.0 | 0.00 | 0.00 | 0.00 | 55 | 1020.6 |
| 20260506200032 | 69 | 275 | 4.0 | 12.0 | 0.00 | 0.00 | 0.00 | 56 | 1020.7 |
| 20260506194537 | 69 | 294 | 6.0 | 17.0 | 0.00 | 0.00 | 0.00 | 58 | 1020.7 |
| 20260506191536 | 67 | 270 | 7.0 | 17.0 | 0.00 | 0.00 | 0.00 | 60 | 1020.8 |
| 20260506190037 | 67 | 271 | 6.0 | 18.0 | 0.00 | 0.00 | 0.00 | 61 | 1020.9 |
| 20260506183034 | 66 | 273 | 8.0 | 18.0 | 0.00 | 0.00 | 0.00 | 64 | 1021.0 |
| 20260506181609 | 66 | 287 | 5.0 | 13.0 | 0.00 | 0.00 | 0.00 | 65 | 1020.8 |
| 20260506180035 | 65 | 271 | 5.0 | 16.0 | 0.00 | 0.00 | 0.00 | 66 | 1020.9 |
| 20260506171610 | 64 | 269 | 7.0 | 14.0 | 0.00 | 0.00 | 0.00 | 67 | 1020.7 |
| 20260506170108 | 64 | 265 | 10.0 | 22.0 | 0.00 | 0.00 | 0.00 | 68 | 1020.4 |
| 20260506164534 | 64 | 301 | 10.0 | 18.0 | 0.00 | 0.00 | 0.00 | 69 | 1020.3 |